Back to catalog

STARLINK-5383

AliveCommunicationsVLEO
NORAD 54827·PAYLOAD·🇺🇸 United States

Launched Dec 28, 2022 from Cape Canaveral Space Force Station

Loading…

Next Passes (next 24 hours)

TLE

FreshSource: CelesTrak SupGP

Epoch: Sep 14, 2026, 13:29 UTC

1 54827C 22177H   26257.56229167  .00019468  00000+0  70530-3 0  2577
2 54827  43.0013 149.5746 0001153 250.1566 231.4779 15.27561770    15

Track STARLINK-5383 in real time with AllMySat

Download on the App Store